Home   Weather   Höxter   Past weeks

Flag for Germany Past Weather in Höxter, North Rhine-Westphalia, Germany — Yesterday and Last 2 Weeks

43 °F

Light rain. Mostly cloudy.

Feels Like: 41 °F
Forecast: 38 / 47 °F
Wind: 3 mph from Southwest

Location: Kassel / Calden

Current Time: Oct 21, 2016 at 10:18:17 PM

Latest Report: Oct 21, 2016 at 8:20 PM

Visibility: 4 mi

Pressure: 29.92 "Hg

Humidity: 100%

Dew Point: 43 °F

Location of HöxterLocation

Past Weather in Höxter — Graph


Höxter Temperature Yesterday

Maximum temperature yesterday: 46 °F (at 2:20 PM)
Minimum temperature yesterday: 41 °F (at 7:20 AM)
Average temperature yesterday: 44 °F

High & Low Weather Summary for the Past Weeks

High63 °F (Oct 16, 3:50 PM)100% (Oct 6, 8:20 PM)30.27 "Hg (Oct 6, 8:20 PM)
Low37 °F (Oct 9, 7:53 AM)62% (Oct 9, 3:50 PM)29.77 "Hg (Oct 14, 7:20 PM)
Average48 °F89%30.07 "Hg
* Reported Oct 6 8:20 PM — Oct 21 8:20 PM, Höxter, Weather by CustomWeather, © 2016

Note: Actual official high and low records may vary slightly from our data, if they occured in-between our weather recording intervals... More about our weather records


Höxter Weather History for the Previous 24 Hours

Scroll right to see more
Time TempWeatherWind HumidityBarometerVisibility
8:20 PM
Fri, Oct 21
43 °FLight rain. Mostly cloudy.3 mph100%29.92 "Hg4 mi
7:50 PM43 °FLight rain. Overcast.2 mph100%29.92 "Hg4 mi
7:20 PM43 °FLight rain. Mostly cloudy.2 mph100%29.92 "Hg4 mi
6:50 PM43 °FLight rain. Mostly cloudy.2 mph100%29.92 "Hg4 mi
6:20 PM43 °FLight rain. Mostly cloudy.6 mph100%29.92 "Hg4 mi
5:50 PM45 °FLight rain. Overcast.6 mph93%29.92 "Hg4 mi
5:20 PM45 °FLight rain. Overcast.3 mph100%29.92 "Hg4 mi
4:50 PM45 °FLight rain. Overcast.6 mph93%29.92 "Hg4 mi
4:20 PM45 °FLight rain. Partly sunny.8 mph87%29.92 "Hg5 mi
3:50 PM45 °FMostly cloudy.9 mph87%29.92 "Hg5 mi
3:20 PM45 °FPartly sunny.10 mph87%29.92 "Hg6 mi
2:50 PM45 °FPartly sunny.10 mph93%29.92 "Hg5 mi
2:20 PM45 °FMostly cloudy.10 mph87%29.92 "Hg4 mi
1:50 PM43 °FPartly sunny.8 mph100%29.92 "Hg4 mi
1:20 PM43 °FDrizzle. Partly sunny.9 mph100%29.92 "Hg4 mi
12:50 PM43 °FCloudy.7 mph100%29.95 "Hg4 mi
12:20 PM43 °FLight rain. Partly sunny.8 mph100%29.95 "Hg2 mi
11:50 AM43 °FLight rain. Partly sunny.12 mph100%29.95 "Hg2 mi
11:20 AM43 °FLight rain. Mostly cloudy.12 mph100%29.95 "Hg4 mi
10:50 AM43 °FLight rain. Fog.10 mph100%29.92 "Hg2 mi
10:20 AM43 °FLight rain. Partly sunny.10 mph100%29.92 "Hg3 mi
9:50 AM43 °FFog.10 mph100%29.92 "Hg3 mi
9:20 AM41 °FFog.9 mph100%29.92 "Hg2 mi
8:50 AM41 °FFog.7 mph100%29.92 "Hg2 mi
8:20 AM41 °FFog.7 mph100%29.92 "Hg2 mi
7:50 AM41 °FFog.9 mph100%29.92 "Hg2 mi
7:20 AM41 °FLight rain. Low clouds.6 mph100%29.92 "Hg2 mi
Weather by CustomWeather, © 2016

See weather overviewHow to use our weather pages